Погода в Семиярке

Погода в Семиярке : погода сейчас, прогноз погоды и архив. Всё, что Вы хотите узнать о погоде в Семиярке!

Хотите узнать прогноз погоды в Семиярке? Тогда Вам сюда: Погода в Семиярке

Поиск расширенной информации на нашем сайте:

Другие новости

Новости СМИ2

Главная страница сайта

Новости сайта

03.07.2017

Напоминаем, что на нашем специализированном сайте Метеоцентр.Азия вы можете получить высокодетализированные автоматические прогнозы погоды по пунктам России, СНГ и мира в авиационном формате (включающие направление и скорость ветра, видимость, явления погоды, количество и форму облачности, нижнюю и верхнюю границу облачности).


Погода в Семиярке - сегодня

Время (UTC), дата Ветер
(°,м/с) 
Видим.   Явления Облачность Т
(°С)
Тd
(°С)
f(%) Тe
(°С)
Pmin
(гПа)
dP
(гПа)
Po
(мм)
O2
(г/м3)
Тmin Tmax R s Состояние
почвы
12 09.12.17 140 (ЮВ) н/о    10/10 600 м кучево-дожд. 
[Cb calv]
-4.5 -8.4 74 -6  1020.1  0.5  751  308           
15 09.12.17 140 (ЮВ) н/о  слаб. ливневой снег  10/10 600 м кучево-дожд. 
[Cb calv]
-3.2 -4.6 90 -4  1022.6  2.5  753  307    -2.5  0.3     
18 09.12.17 140 (ЮВ) н/о  {ливн. осадки}  10/10 600 м 
[Sc]
-2.1 -3.6 89 -3  1023  0.5  753  306    -2.5  0.3     
21 09.12.17 тихо ()   н/о    10/10 600 м 
[Sc]
-3.4 -5.5 85 -3  1023.4  0.3  753  308           
00 10.12.17 140 (ЮВ) н/о    9/3 600 м средняя, верхняя 
[Sc|Ac trans|Ci fib]
-4.2 -5.8 89 -5  1020.8  -2.6  751  308           
03 10.12.17 140 (ЮВ) 20000 м  в посл. час ливневой снег  10/10 600 м кучево-дожд. 
[Cb calv]
-2.4 -3.7 91 -5  1021  0.3  752  306      равномерный
сухой снег
100% 
06 10.12.17 270 (З) 8{16}  20000 м  позёмок{ливн. осадки}  9/9 600 м кучево-дожд. 
[Cb calv]
-2.2 -6.5 72 -7  1023.4  2.4  753  307  -5       
09 10.12.17 250 (З) 20000 м  позёмок  4/0 верхняя 
[Ci sp]
-3.2 -8.3 68 -7  1025.3  1.8  755  309           
12 10.12.17 230 (ЮЗ) н/о    8/8 600 м 
[Sc]
-4.6 -8.6 74 -8  1026.9  1.5  756  311           
15 10.12.17 230 (ЮЗ) н/о    9/9 600 м 
[Sc]
-7 -10.8 74 -11  1027.9  0.8  757  314    -0.8  0.6     
18 10.12.17 180 (Ю) н/о    3/3 600 м 
[Sc]
-9.6 -13.2 75 -14  1027.6  -0.5  756  317    -0.8  0.6     
21 10.12.17 180 (Ю) н/о    9/6 600 м средняя, верхняя 
[Sc|Ac trans|Ci fib]
-8.6 -11.9 77 -10  1026.3  -1.2  755  315           
00 11.12.17 180 (Ю) н/о  слаб. ливневой снег  10/10 600 м кучево-дожд. 
[Cb calv]
-6 -7.9 86 -7  1025.1  -1  755  312           
03 11.12.17 270 (З) 4000 м  слаб. ливневой снег  10/10 600 м кучево-дожд. 
[Cb calv]
-7 -9.5 82 -11  1025.1  -0.1  754  313      10  равномерный
сухой снег
100% 
06 11.12.17 230 (ЮЗ) 20000 м  {ливн. осадки}  6/3 600 м верхняя 
[Sc|Ci sp]
-6.4 -10 76 -10  1024.4  -0.6  754  312  -9.6       
09 11.12.17 230 (ЮЗ) 20000 м    9/0 верхняя 
[Cs]
-7 -10.4 77 -11  1023.8  -0.7  753  313           
12 11.12.17 230 (ЮЗ) н/о    3/0 верхняя 
[Ci sp]
-10.6 -15.5 67 -12  1025.1  754  318           
15 11.12.17 230 (ЮЗ) н/о    3/0 верхняя 
[Ci sp]
-10.1 -14 73 -14  1025.8  0.8  755  317    -4  0.0     
18 11.12.17 230 (ЮЗ) н/о    6/0 верхняя 
[Ci sp]
-9 -12.4 76 -14  1026.8  756  316    -4  0.0     
21 11.12.17 230 (ЮЗ) н/о  слаб. снег  9/0 средняя 
[Ac As]
-9.6 -12.2 81 -16  1027.9  1.1  756  317           
00 12.12.17 230 (ЮЗ) н/о  слаб. снег  10/0 средняя 
[Ac As]
-10.1 -12.6 82 -14  1028.8  0.8  757  318           
03 12.12.17 270 (З) 20000 м  позёмок{снег}  10/0 средняя 
[Ac As]
-11.2 -14.3 78 -17  1030.4  1.5  758  320      0.3  12  неравномерный
сухой снег
100% 
06 12.12.17 270 (З) 4000 м  слаб. снег  10/0 средняя 
[Ac As]
-11.4 -14 81 -17  1032.1  1.7  759  321  -11.2    0.3     
09 12.12.17 270 (З) 20000 м  {снег}  8/0 верхняя 
[Ci sp]
-10.5 -13.9 76 -15  1032.8  0.7  760  320           
12 12.12.17 320 (СЗ) н/о  {снег}  6/0 верхняя 
[Ci sp]
-15.6 -18.6 78 -20  1035.8  2.6  762  327           
Время (UTC), дата Ветер
(°,м/с) 
Видим.   Явления Облачность Т
(°С)
Тd
(°С)
f(%) Тe
(°С)
Pmin
(гПа)
dP
(гПа)
Po
(мм)
O2
(г/м3)
Тmin Tmax R s Состояние
почвы

Для получения пояснительной информации подведите курсор к названию столбца.

ПОГОДА в Семиярке - архив

Всё, что Вы хотите узнать о погоде в Семиярке - удобно и подробно!

Выберите нужную дату (начиная с 1 января 2015* года) и нажмите кнопку "Найти".
Будут отображены архивные сводки погоды по пункту Семиярка, начиная с указанной даты.


Отображать данные в формате CSV (для использования в таблицах Excel)


Внимание! Наш архив погоды предназначен исключительно для личного некоммерческого использования в познавательных целях. Если Вам необходимы официальные справки о состоянии погоды (для производственных, юридических, коммерческих и т.п. целей), обращайтесь в органы Росгидромета.

*Примечание: данная дата относится к архиву по метеостанциям СССР (Россия, СНГ, Балтия).
Архив по метеостанциям Зарубежной Европы и Азии (кроме Китая) хранится 10 дней, по другим регионам земного шара (Китай, Африка, Америка, Австралия, Океания) - 1 день.

Семиярка - район местоположения метеостанции


Название, широта, долгота, высота метеостанции:
Семиярка 50.9°ш. 78.3°д. 149 м над ур. моря [Казахстан]

Дополнительная информация

В oтличие oт бoльшинства пoгoдных сайтoв мы публикуем пoдрoбную метеoинфoрмацию в детальнoм прoфессиoнальнoм фoрмате.

Характеристики температуры и влажнoсти вoздуха измеряются на высoте 2 м в тени вдали oт зданий и деревьев.
Скoрoсть ветра измеряется на высoте 10 м (на урoвне рoста челoвека скoрoсть ветра ниже в 1.5-2 раза). Если метеoстанция нахoдится в гoрoде или в лесу, тo скoрoсть ветра занижена на 2-4 м/с пo сравнению с oткрытым местoм. Скoрoсть ветра над акватoриями крупных рек и oзёр, а также на вершинах хoлмoв на 2-5 м/с выше, чем в oбычных услoвиях.
Атмoсфернoе давление в разных тoчках местнoсти мoжет значительнo oтличаться oт давления на метеoстанции, в зависимoсти oт услoвий рельефа (при пoдъёме на 10 м давление пoнижается примернo на 1 мм рт.ст.).